Hancock, MI

5:16 AM EDT on August 29, 2016 (GMT -0400)
Houghton County Memorial

Weather History for KCMX - August, 2013

Change the Weather History Date:

Friday, August 9, 2013

  Actual Average Record
Temperature  
Mean Temperature 58 °F -  
Max Temperature 66 °F 74 °F 90 °F (1971)
Min Temperature 52 °F 56 °F 40 °F (1962)
Degree Days  
Heating Degree Days 7    
Growing Degree Days 8 (Base 50)    
Moisture  
Dew Point 51 °F    
Average Humidity 76    
Maximum Humidity 89    
Minimum Humidity 60    
Precipitation  
Precipitation 0.00 in - - ()
Sea Level Pressure  
Sea Level Pressure 29.95 in    
Wind  
Wind Speed 9 mph (WNW)    
Max Wind Speed 23 mph    
Max Gust Speed 33 mph    
Visibility 10 miles    
Events      
Averages and records for this station are not official NWS values.
T = Trace of Precipitation, MM = Missing Value Source: NWS Daily Summary

Daily Weather History Graph

Daily Weather History Graph

Search for Another Location

Airport or City:

Trip Planner

Search our weather history database for the weather conditions in past years. The results will help you decide how hot, cold, wet, or windy it might be!

Date:

Astronomy

Aug. 09, 2013 Rise Set
Actual Time 6:43 AM EDT 9:14 PM EDT
Civil Twilight 6:08 AM EDT 9:48 PM EDT
Nautical Twilight 5:25 AM EDT 10:31 PM EDT
Astronomical Twilight 4:35 AM EDT 11:21 PM EDT
Moon 9:44 AM EDT (8/9) 10:06 PM EDT (8/9)
Length of Visible Light 15h 39m
Length of Day
14h 31m
Waxing Crescent, 7% of the Moon is Illuminated
Aug 9
Waxing Crescent
Aug 14
First Quarter
Aug 20
Full
Aug 28
Last Quarter
Sep 5
New

Hourly Weather History & Observations

Time (EDT) Temp. Dew Point Humidity Pressure Visibility Wind Dir Wind Speed Gust Speed Precip Events Conditions
12:53 AM 54.0 °F 50.0 °F 86% 29.94 in 10.0 mi Calm Calm - N/A   Overcast
1:53 AM 57.0 °F 53.1 °F 87% 29.93 in 10.0 mi West 6.9 mph - 0.00 in   Mostly Cloudy
2:53 AM 59.0 °F 55.0 °F 87% 29.92 in 10.0 mi West 10.4 mph - N/A   Overcast
3:53 AM 57.9 °F 54.0 °F 87% 29.92 in 10.0 mi West 8.1 mph - N/A   Scattered Clouds
4:53 AM 55.9 °F 52.0 °F 87% 29.92 in 10.0 mi WNW 6.9 mph - N/A   Partly Cloudy
5:53 AM 53.1 °F 50.0 °F 89% 29.92 in 10.0 mi West 5.8 mph - N/A   Clear
6:53 AM 52.0 °F 48.9 °F 89% 29.91 in 10.0 mi West 5.8 mph - N/A   Partly Cloudy
7:53 AM 55.9 °F 52.0 °F 87% 29.90 in 10.0 mi West 8.1 mph - N/A   Clear
8:53 AM 59.0 °F 53.1 °F 81% 29.90 in 10.0 mi West 12.7 mph - N/A   Clear
9:53 AM 62.1 °F 52.0 °F 70% 29.90 in 10.0 mi WNW 16.1 mph - N/A   Clear
10:53 AM 63.0 °F 51.1 °F 65% 29.90 in 10.0 mi West 20.7 mph - N/A   Clear
11:53 AM 63.0 °F 48.9 °F 60% 29.90 in 10.0 mi West 23.0 mph 28.8 mph N/A   Overcast
12:53 PM 63.0 °F 50.0 °F 63% 29.93 in 10.0 mi West 23.0 mph 33.4 mph N/A   Mostly Cloudy
1:53 PM 62.1 °F 50.0 °F 65% 29.94 in 10.0 mi West 17.3 mph 27.6 mph N/A   Overcast
2:53 PM 62.1 °F 50.0 °F 65% 29.96 in 10.0 mi WNW 17.3 mph 29.9 mph N/A   Overcast
3:53 PM 64.0 °F 50.0 °F 60% 29.96 in 10.0 mi WNW 17.3 mph 28.8 mph N/A   Overcast
4:53 PM 63.0 °F 51.1 °F 65% 29.98 in 10.0 mi WNW 13.8 mph - N/A   Overcast
5:53 PM 64.0 °F 51.1 °F 63% 29.99 in 10.0 mi WNW 11.5 mph - N/A   Scattered Clouds
6:53 PM 64.0 °F 50.0 °F 60% 30.00 in 10.0 mi WNW 10.4 mph - N/A   Scattered Clouds
7:53 PM 62.1 °F 51.1 °F 67% 30.00 in 10.0 mi WNW 10.4 mph - N/A   Clear
8:53 PM 59.0 °F 50.0 °F 72% 30.02 in 10.0 mi WNW 8.1 mph - N/A   Clear
9:53 PM 55.0 °F 51.1 °F 86% 30.04 in 10.0 mi Calm Calm - N/A   Clear
10:53 PM 53.1 °F 48.9 °F 86% 30.05 in 10.0 mi NW 5.8 mph - N/A   Scattered Clouds
11:53 PM 52.0 °F 48.9 °F 89% 30.05 in 10.0 mi WNW 4.6 mph - N/A   Scattered Clouds